| time (UTC) | temp C | wind direction | speed KPH | gust KPH | rain 1hr cm | rain 24hr cm | rain mn cm | humidity % | barometer mb |
| 20260505174224 | 12 | 305 | 12.9 | 19.3 | 0.00 | 0.00 | 0.00 | 22 | 1010.5 |
| 20260505172024 | 12 | 298 | 11.3 | 12.9 | 0.00 | 0.00 | 0.00 | 22 | 1010.7 |
| 20260505170926 | 13 | 266 | 14.5 | 17.7 | 0.00 | 0.00 | 0.00 | 22 | 1010.6 |
| 20260505164724 | 13 | 238 | 9.7 | 17.7 | 0.00 | 0.00 | 0.00 | 20 | 1010.5 |
| 20260505161424 | 13 | 262 | 14.5 | 27.4 | 0.00 | 0.00 | 0.00 | 20 | 1010.0 |
| 20260505160325 | 14 | 292 | 12.9 | 17.7 | 0.00 | 0.00 | 0.00 | 20 | 1010.1 |
| 20260505153024 | 14 | 295 | 9.7 | 16.1 | 0.00 | 0.00 | 0.00 | 20 | 1010.1 |
| 20260505151924 | 14 | 197 | 8.0 | 16.1 | 0.00 | 0.00 | 0.00 | 20 | 1010.0 |
| 20260505140225 | 14 | 341 | 16.1 | 25.7 | 0.00 | 0.00 | 0.00 | 20 | 1010.2 |
| 20260505124523 | 14 | 295 | 9.7 | 12.9 | 0.00 | 0.00 | 0.00 | 22 | 1010.2 |
| 20260505123423 | 13 | 266 | 16.1 | 24.1 | 0.00 | 0.00 | 0.00 | 22 | 1010.2 |
| 20260505122323 | 13 | 263 | 11.3 | 17.7 | 0.00 | 0.00 | 0.00 | 22 | 1010.2 |
| 20260505121224 | 13 | 211 | 11.3 | 16.1 | 0.00 | 0.00 | 0.00 | 22 | 1010.4 |
| 20260505120123 | 13 | 307 | 14.5 | 24.1 | 0.00 | 0.00 | 0.00 | 22 | 1010.5 |
| 20260505115024 | 13 | 210 | 11.3 | 17.7 | 0.00 | 0.00 | 0.00 | 24 | 1010.6 |
| 20260505113923 | 13 | 270 | 12.9 | 19.3 | 0.00 | 0.00 | 0.00 | 22 | 1010.4 |
| 20260505112823 | 13 | 260 | 12.9 | 17.7 | 0.00 | 0.00 | 0.00 | 28 | 1010.6 |
| 20260505110624 | 13 | 241 | 12.9 | 17.7 | 0.00 | 0.00 | 0.00 | 30 | 1010.7 |
| 20260505101124 | 12 | 240 | 14.5 | 22.5 | 0.00 | 0.00 | 0.00 | 32 | 1010.8 |
| 20260505100023 | 12 | 273 | 14.5 | 17.7 | 0.00 | 0.00 | 0.00 | 36 | 1010.9 |
| 20260505093822 | 12 | 242 | 16.1 | 24.1 | 0.00 | 0.00 | 0.00 | 40 | 1010.8 |
| 20260505092723 | 12 | 252 | 16.1 | 22.5 | 0.00 | 0.00 | 0.00 | 42 | 1010.8 |
| 20260505091622 | 12 | 298 | 16.1 | 22.5 | 0.00 | 0.00 | 0.00 | 43 | 1010.8 |
| 20260505090522 | 12 | 259 | 12.9 | 19.3 | 0.00 | 0.00 | 0.00 | 47 | 1010.8 |
| 20260505085423 | 12 | 225 | 11.3 | 17.7 | 0.00 | 0.00 | 0.00 | 50 | 1010.8 |
| 20260505084321 | 11 | 291 | 14.5 | 17.7 | 0.00 | 0.00 | 0.00 | 50 | 1010.7 |
| 20260505083222 | 11 | 254 | 12.9 | 17.7 | 0.00 | 0.00 | 0.00 | 51 | 1010.8 |
| 20260505082122 | 11 | 229 | 12.9 | 17.7 | 0.00 | 0.00 | 0.00 | 54 | 1010.7 |
| 20260505075921 | 11 | 268 | 12.9 | 17.7 | 0.00 | 0.00 | 0.00 | 54 | 1010.8 |
| 20260505074823 | 11 | 234 | 12.9 | 17.7 | 0.00 | 0.00 | 0.00 | 56 | 1010.8 |
| 20260505073721 | 11 | 215 | 14.5 | 17.7 | 0.00 | 0.00 | 0.00 | 57 | 1010.6 |
| 20260505072622 | 11 | 243 | 12.9 | 16.1 | 0.00 | 0.00 | 0.00 | 60 | 1010.7 |
| 20260505071521 | 11 | 239 | 12.9 | 17.7 | 0.00 | 0.00 | 0.00 | 61 | 1010.6 |
| 20260505070421 | 10 | 302 | 16.1 | 22.5 | 0.00 | 0.00 | 0.00 | 61 | 1010.7 |
| 20260505065321 | 11 | 202 | 11.3 | 17.7 | 0.00 | 0.00 | 0.00 | 63 | 1010.6 |
| 20260505064221 | 10 | 303 | 14.5 | 24.1 | 0.00 | 0.00 | 0.00 | 63 | 1010.7 |
| 20260505063121 | 10 | 241 | 11.3 | 17.7 | 0.00 | 0.00 | 0.00 | 69 | 1010.4 |
| 20260505062021 | 10 | 242 | 16.1 | 20.9 | 0.00 | 0.00 | 0.00 | 70 | 1010.5 |
| 20260505060922 | 9 | 256 | 12.9 | 17.7 | 0.00 | 0.00 | 0.00 | 71 | 1010.4 |
| 20260505055822 | 8 | 199 | 11.3 | 16.1 | 0.00 | 0.00 | 0.00 | 72 | 1010.1 |
| 20260505054722 | 8 | 219 | 14.5 | 20.9 | 0.00 | 0.00 | 0.00 | 73 | 1010.1 |
| 20260505053620 | 8 | 243 | 12.9 | 19.3 | 0.00 | 0.00 | 0.00 | 75 | 1010.0 |
| 20260505052522 | 8 | 226 | 14.5 | 20.9 | 0.00 | 0.00 | 0.00 | 78 | 1009.8 |
| 20260505050321 | 7 | 229 | 11.3 | 17.7 | 0.00 | 0.03 | 0.00 | 79 | 1009.6 |
| 20260505040821 | 6 | 251 | 8.0 | 12.9 | 0.00 | 0.03 | 0.00 | 85 | 1009.8 |
| 20260505035720 | 6 | 229 | 9.7 | 14.5 | 0.00 | 0.08 | 0.00 | 85 | 1009.8 |
| 20260505034620 | 6 | 242 | 9.7 | 12.9 | 0.00 | 0.08 | 0.00 | 86 | 1009.8 |
| 20260505033520 | 6 | 243 | 11.3 | 16.1 | 0.00 | 0.10 | 0.00 | 86 | 1009.8 |
| 20260505032420 | 6 | 270 | 9.7 | 16.1 | 0.00 | 0.13 | 0.00 | 86 | 1009.7 |
| 20260505030220 | 6 | 253 | 14.5 | 22.5 | 0.00 | 0.20 | 0.00 | 85 | 1009.8 |
| 20260505024020 | 6 | 234 | 19.3 | 27.4 | 0.00 | 0.25 | 0.00 | 86 | 1009.8 |
| 20260505022921 | 6 | 264 | 17.7 | 25.7 | 0.00 | 0.33 | 0.00 | 86 | 1009.8 |
| 20260505021820 | 6 | 232 | 16.1 | 27.4 | 0.00 | 0.38 | 0.00 | 85 | 1009.9 |
| 20260505015620 | 6 | 258 | 9.7 | 14.5 | 0.00 | 0.51 | 0.00 | 84 | 1009.9 |
| 20260505014519 | 6 | 240 | 14.5 | 19.3 | 0.00 | 0.56 | 0.00 | 84 | 1010.0 |
| 20260505013420 | 7 | 249 | 16.1 | 24.1 | 0.00 | 0.58 | 0.00 | 84 | 1009.9 |
| 20260505010120 | 7 | 255 | 16.1 | 24.1 | 0.00 | 0.79 | 0.00 | 84 | 1010.0 |
| 20260505005019 | 7 | 268 | 14.5 | 24.1 | 0.00 | 0.79 | 0.00 | 85 | 1010.0 |
| 20260505003919 | 7 | 248 | 14.5 | 24.1 | 0.00 | 0.81 | 0.00 | 85 | 1010.1 |
| 20260505002819 | 7 | 241 | 16.1 | 22.5 | 0.00 | 0.84 | 0.00 | 85 | 1010.1 |
| 20260504234419 | 7 | 230 | 12.9 | 24.1 | 0.00 | 0.86 | 0.00 | 80 | 1010.2 |
| 20260504233320 | 7 | 252 | 12.9 | 19.3 | 0.00 | 0.86 | 0.00 | 80 | 1010.3 |
| 20260504232218 | 7 | 246 | 11.3 | 24.1 | 0.00 | 0.91 | 0.00 | 80 | 1010.5 |
| 20260504231119 | 7 | 194 | 9.7 | 24.1 | 0.00 | 0.91 | 0.00 | 85 | 1010.3 |
| 20260504230018 | 7 | 225 | 11.3 | 14.5 | 0.00 | 0.91 | 0.00 | 84 | 1010.4 |
| 20260504224919 | 7 | 234 | 8.0 | 11.3 | 0.00 | 0.91 | 0.00 | 84 | 1010.6 |
| 20260504223818 | 7 | 191 | 6.4 | 12.9 | 0.00 | 0.91 | 0.00 | 83 | 1010.4 |
| 20260504222718 | 7 | 197 | 4.8 | 8.0 | 0.00 | 0.91 | 0.00 | 82 | 1010.5 |
| 20260504220518 | 7 | 231 | 8.0 | 11.3 | 0.00 | 0.91 | 0.00 | 74 | 1010.4 |
| 20260504215418 | 7 | 205 | 6.4 | 12.9 | 0.00 | 0.91 | 0.91 | 78 | 1010.4 |
| 20260504214318 | 7 | 173 | 4.8 | 8.0 | 0.00 | 0.91 | 0.91 | 74 | 1010.4 |
| 20260504212118 | 7 | 185 | 3.2 | 6.4 | 0.00 | 0.91 | 0.91 | 66 | 1010.4 |
| 20260504211018 | 7 | 165 | 4.8 | 4.8 | 0.00 | 0.91 | 0.91 | 65 | 1010.5 |
| 20260504205918 | 7 | 164 | 3.2 | 6.4 | 0.00 | 0.91 | 0.91 | 64 | 1010.5 |
| 20260504204819 | 8 | 165 | 3.2 | 4.8 | 0.00 | 0.91 | 0.91 | 63 | 1010.3 |
| 20260504203719 | 8 | 200 | 3.2 | 6.4 | 0.00 | 0.91 | 0.91 | 62 | 1010.2 |
| 20260504202619 | 8 | 176 | 3.2 | 4.8 | 0.00 | 0.91 | 0.91 | 61 | 1010.3 |
| 20260504200418 | 9 | 172 | 4.8 | 6.4 | 0.00 | 0.91 | 0.91 | 60 | 1010.1 |
| 20260504195318 | 10 | 168 | 6.4 | 12.9 | 0.00 | 0.91 | 0.91 | 60 | 1010.3 |
| 20260504194218 | 10 | 196 | 8.0 | 12.9 | 0.00 | 0.91 | 0.91 | 59 | 1010.3 |
| 20260504192018 | 10 | 201 | 6.4 | 9.7 | 0.00 | 0.91 | 0.91 | 59 | 1010.0 |
| 20260504190918 | 11 | 203 | 9.7 | 12.9 | 0.00 | 0.91 | 0.91 | 58 | 1010.0 |
| 20260504185817 | 11 | 190 | 8.0 | 12.9 | 0.00 | 0.91 | 0.91 | 58 | 1010.0 |
| 20260504184717 | 11 | 199 | 8.0 | 11.3 | 0.00 | 0.91 | 0.91 | 58 | 1009.8 |
| 20260504183618 | 12 | 209 | 9.7 | 12.9 | 0.00 | 0.91 | 0.91 | 56 | 1009.8 |
| 20260504182519 | 12 | 206 | 8.0 | 16.1 | 0.00 | 0.91 | 0.91 | 54 | 1009.7 |
| 20260504181417 | 12 | 218 | 11.3 | 16.1 | 0.00 | 0.91 | 0.91 | 49 | 1009.7 |
| 20260504180317 | 12 | 220 | 12.9 | 17.7 | 0.00 | 0.91 | 0.91 | 47 | 1009.7 |
| 20260504175217 | 13 | 218 | 11.3 | 12.9 | 0.00 | 0.91 | 0.91 | 46 | 1009.6 |